Location: Berlin
(42.3812°N, 71.6370°W)
Time: 21:41:01
(UTC+00:00)

SJ 16-02 - Pass Details

Date: 15 November 2025
Orbit: 585 x 594 km, 75.0° (Epoch: 11 December)

Event Time Altitude Azimuth Distance (km) Brightness Sun altitude
Exits shadow 10:17:31 22° 310° (NW) 1,311 2.5 -14.9°
Maximum altitude 10:19:40 36° 258° (WSW) 934 1.8 -14.5°
Drops below altitude 10° 10:23:33 10° 192° (SSW) 1,905 3.9 -13.8°
Sets 10:25:52 0° 183° (S) 2,798 4.9 -13.4°
